Location: Ammerl�gen
(47.2167°N, 9.6000°E)
Time: 16:01:34
(UTC+00:00)

Cosmos 2082 - Pass Details

Date: 21 April 2021
Orbit: 834 x 855 km, 71.0° (Epoch: 06 May)

Event Time Altitude Azimuth Distance (km) Brightness Sun altitude
Exits shadow 20:53:33 29° 197° (SSW) 1,490 4.7 -22.2°
Maximum altitude 20:56:32 80° 115° (ESE) 853 3.5 -22.5°
Drops below altitude 10° 21:02:10 10° 29° (NNE) 2,458 6.4 -23.1°
Sets 21:04:37 0° 28° (NNE) 3,398 7.2 -23.4°
